| time (UTC) | temp C | wind direction | speed KPH | gust KPH | rain 1hr cm | rain 24hr cm | rain mn cm | humidity % | barometer mb |
| 20260509040013 | 16 | 118 | 12.9 | 19.3 | 0.00 | 0.00 | 0.00 | 26 | 878.7 |
| 20260509034513 | 16 | 121 | 12.9 | 19.3 | 0.00 | 0.00 | 0.00 | 28 | 878.6 |
| 20260509033012 | 16 | 135 | 14.5 | 22.5 | 0.00 | 0.00 | 0.00 | 29 | 878.6 |
| 20260509031510 | 16 | 146 | 12.9 | 24.1 | 0.00 | 0.00 | 0.00 | 34 | 878.6 |
| 20260509030010 | 16 | 144 | 11.3 | 20.9 | 0.00 | 0.00 | 0.00 | 36 | 878.5 |
| 20260509024509 | 17 | 123 | 11.3 | 17.7 | 0.00 | 0.00 | 0.00 | 36 | 878.4 |
| 20260509023008 | 18 | 120 | 12.9 | 22.5 | 0.00 | 0.00 | 0.00 | 33 | 878.3 |
| 20260509021507 | 18 | 80 | 12.9 | 27.4 | 0.00 | 0.00 | 0.00 | 34 | 878.2 |
| 20260509020009 | 19 | 131 | 17.7 | 38.6 | 0.00 | 0.00 | 0.00 | 34 | 878.2 |
| 20260509014511 | 20 | 117 | 16.1 | 33.8 | 0.00 | 0.00 | 0.00 | 36 | 878.2 |
| 20260509013004 | 20 | 147 | 19.3 | 33.8 | 0.00 | 0.00 | 0.00 | 37 | 878.2 |
| 20260509011503 | 20 | 134 | 19.3 | 35.4 | 0.00 | 0.00 | 0.00 | 40 | 878.3 |
| 20260509010004 | 21 | 131 | 19.3 | 29.0 | 0.00 | 0.00 | 0.00 | 43 | 878.2 |
| 20260509004503 | 21 | 103 | 19.3 | 33.8 | 0.00 | 0.00 | 0.00 | 38 | 878.2 |
| 20260509003001 | 21 | 107 | 16.1 | 35.4 | 0.00 | 0.00 | 0.00 | 40 | 878.3 |
| 20260509001600 | 22 | 123 | 19.3 | 32.2 | 0.00 | 0.00 | 0.00 | 39 | 878.3 |
| 20260509000059 | 22 | 134 | 16.1 | 33.8 | 0.00 | 0.00 | 0.00 | 41 | 878.5 |
| 20260508234558 | 22 | 170 | 19.3 | 30.6 | 0.00 | 0.00 | 0.00 | 36 | 878.6 |
| 20260508233125 | 22 | 111 | 19.3 | 33.8 | 0.00 | 0.00 | 0.00 | 29 | 878.6 |
| 20260508231558 | 22 | 138 | 24.1 | 37.0 | 0.00 | 0.00 | 0.00 | 32 | 878.7 |
| 20260508230058 | 23 | 85 | 17.7 | 33.8 | 0.00 | 0.00 | 0.00 | 31 | 878.9 |
| 20260508224615 | 23 | 104 | 19.3 | 33.8 | 0.00 | 0.00 | 0.00 | 31 | 878.9 |
| 20260508223054 | 23 | 85 | 17.7 | 30.6 | 0.00 | 0.00 | 0.00 | 35 | 879.0 |
| 20260508221553 | 23 | 149 | 16.1 | 33.8 | 0.00 | 0.00 | 0.00 | 35 | 879.2 |
| 20260508220055 | 23 | 98 | 20.9 | 35.4 | 0.00 | 0.00 | 0.00 | 33 | 879.4 |
| 20260508214553 | 23 | 113 | 16.1 | 33.8 | 0.00 | 0.00 | 0.00 | 35 | 879.4 |
| 20260508213052 | 23 | 166 | 14.5 | 29.0 | 0.00 | 0.00 | 0.00 | 40 | 879.5 |
| 20260508211551 | 23 | 167 | 14.5 | 35.4 | 0.00 | 0.00 | 0.00 | 37 | 879.6 |
| 20260508210051 | 22 | 83 | 12.9 | 33.8 | 0.00 | 0.00 | 0.00 | 41 | 879.8 |
| 20260508204553 | 23 | 115 | 14.5 | 27.4 | 0.00 | 0.00 | 0.00 | 39 | 879.8 |
| 20260508203055 | 23 | 119 | 14.5 | 29.0 | 0.00 | 0.00 | 0.00 | 38 | 879.8 |
| 20260508201548 | 23 | 112 | 14.5 | 29.0 | 0.00 | 0.00 | 0.00 | 33 | 879.9 |
| 20260508200059 | 23 | 162 | 19.3 | 30.6 | 0.00 | 0.00 | 0.00 | 28 | 879.9 |
| 20260508194547 | 23 | 148 | 17.7 | 29.0 | 0.00 | 0.00 | 0.00 | 29 | 880.1 |
| 20260508193047 | 23 | 130 | 17.7 | 33.8 | 0.00 | 0.00 | 0.00 | 25 | 880.1 |
| 20260508191552 | 23 | 130 | 16.1 | 35.4 | 0.00 | 0.00 | 0.00 | 28 | 880.2 |
| 20260508190045 | 23 | 132 | 12.9 | 33.8 | 0.00 | 0.00 | 0.00 | 29 | 880.3 |
| 20260508184550 | 23 | 106 | 16.1 | 29.0 | 0.00 | 0.00 | 0.00 | 27 | 880.3 |
| 20260508183045 | 23 | 126 | 14.5 | 24.1 | 0.00 | 0.00 | 0.00 | 27 | 880.3 |
| 20260508181542 | 23 | 162 | 16.1 | 25.7 | 0.00 | 0.00 | 0.00 | 30 | 880.4 |
| 20260508180040 | 23 | 137 | 14.5 | 25.7 | 0.00 | 0.00 | 0.00 | 28 | 880.3 |
| 20260508174547 | 22 | 115 | 19.3 | 27.4 | 0.00 | 0.00 | 0.00 | 26 | 880.3 |
| 20260508173037 | 22 | 86 | 14.5 | 29.0 | 0.00 | 0.00 | 0.00 | 32 | 880.2 |
| 20260508171537 | 22 | 121 | 17.7 | 37.0 | 0.00 | 0.00 | 0.00 | 29 | 880.1 |
| 20260508170039 | 22 | 119 | 14.5 | 27.4 | 0.00 | 0.00 | 0.00 | 31 | 880.1 |
| 20260508164534 | 22 | 134 | 16.1 | 27.4 | 0.00 | 0.00 | 0.00 | 32 | 880.1 |
| 20260508163032 | 22 | 109 | 12.9 | 25.7 | 0.00 | 0.00 | 0.00 | 32 | 880.0 |
| 20260508161529 | 21 | 101 | 16.1 | 30.6 | 0.00 | 0.00 | 0.00 | 32 | 880.1 |
| 20260508160028 | 21 | 137 | 14.5 | 24.1 | 0.00 | 0.00 | 0.00 | 33 | 880.0 |
| 20260508154536 | 21 | 128 | 12.9 | 24.1 | 0.00 | 0.00 | 0.00 | 33 | 879.9 |
| 20260508153024 | 20 | 98 | 12.9 | 19.3 | 0.00 | 0.00 | 0.00 | 33 | 880.0 |
| 20260508151529 | 20 | 137 | 9.7 | 20.9 | 0.00 | 0.00 | 0.00 | 36 | 880.0 |
| 20260508150024 | 19 | 114 | 9.7 | 14.5 | 0.00 | 0.00 | 0.00 | 37 | 879.9 |
| 20260508144514 | 18 | 157 | 8.0 | 16.1 | 0.00 | 0.00 | 0.00 | 39 | 879.8 |
| 20260508143011 | 18 | 116 | 6.4 | 12.9 | 0.00 | 0.00 | 0.00 | 40 | 879.6 |
| 20260508141516 | 17 | 110 | 4.8 | 11.3 | 0.00 | 0.00 | 0.00 | 40 | 879.6 |
| 20260508140009 | 17 | 107 | 3.2 | 9.7 | 0.00 | 0.00 | 0.00 | 42 | 879.7 |
| 20260508134600 | 16 | 163 | 1.6 | 11.3 | 0.00 | 0.00 | 0.00 | 46 | 879.4 |
| 20260508133103 | 15 | 121 | 6.4 | 9.7 | 0.00 | 0.00 | 0.00 | 44 | 879.4 |
| 20260508131559 | 15 | 109 | 8.0 | 12.9 | 0.00 | 0.00 | 0.00 | 44 | 879.3 |
| 20260508130111 | 14 | 80 | 4.8 | 11.3 | 0.00 | 0.00 | 0.00 | 46 | 879.2 |
| 20260508124557 | 13 | 138 | 4.8 | 9.7 | 0.00 | 0.00 | 0.00 | 50 | 879.0 |
| 20260508123101 | 12 | 105 | 4.8 | 8.0 | 0.00 | 0.00 | 0.00 | 56 | 879.0 |
| 20260508121629 | 12 | 114 | 3.2 | 8.0 | 0.00 | 0.00 | 0.00 | 58 | 879.0 |
| 20260508120056 | 12 | 121 | 3.2 | 4.8 | 0.00 | 0.00 | 0.00 | 61 | 879.0 |
| 20260508114556 | 12 | 129 | 1.6 | 6.4 | 0.00 | 0.00 | 0.00 | 61 | 879.0 |
| 20260508113054 | 12 | 121 | 1.6 | 6.4 | 0.00 | 0.00 | 0.00 | 63 | 878.9 |
| 20260508111552 | 13 | 124 | 1.6 | 6.4 | 0.00 | 0.00 | 0.00 | 62 | 878.9 |
| 20260508110047 | 13 | 136 | 3.2 | 6.4 | 0.00 | 0.00 | 0.00 | 59 | 879.0 |
| 20260508104552 | 13 | 123 | 3.2 | 6.4 | 0.00 | 0.00 | 0.00 | 59 | 879.0 |
| 20260508103045 | 15 | 115 | 3.2 | 11.3 | 0.00 | 0.00 | 0.00 | 58 | 879.1 |
| 20260508101545 | 15 | 115 | 6.4 | 11.3 | 0.00 | 0.00 | 0.00 | 55 | 879.2 |
| 20260508100038 | 15 | 137 | 4.8 | 9.7 | 0.00 | 0.00 | 0.00 | 53 | 879.2 |
| 20260508094544 | 15 | 113 | 6.4 | 12.9 | 0.00 | 0.00 | 0.00 | 47 | 879.2 |
| 20260508093034 | 15 | 117 | 4.8 | 11.3 | 0.00 | 0.00 | 0.00 | 45 | 879.3 |
| 20260508091546 | 15 | 141 | 6.4 | 11.3 | 0.00 | 0.00 | 0.00 | 43 | 879.4 |
| 20260508090042 | 16 | 123 | 6.4 | 17.7 | 0.00 | 0.00 | 0.00 | 40 | 879.5 |
| 20260508084528 | 15 | 103 | 6.4 | 12.9 | 0.00 | 0.00 | 0.00 | 42 | 879.5 |
| 20260508083026 | 16 | 144 | 6.4 | 17.7 | 0.00 | 0.00 | 0.00 | 42 | 879.8 |
| 20260508081532 | 16 | 131 | 9.7 | 14.5 | 0.00 | 0.00 | 0.00 | 42 | 879.8 |
| 20260508080026 | 16 | 150 | 6.4 | 14.5 | 0.00 | 0.00 | 0.00 | 44 | 879.9 |
| 20260508074519 | 15 | 146 | 6.4 | 17.7 | 0.00 | 0.00 | 0.00 | 45 | 880.0 |
| 20260508073017 | 15 | 134 | 6.4 | 11.3 | 0.00 | 0.00 | 0.00 | 46 | 880.2 |
| 20260508071522 | 16 | 136 | 6.4 | 11.3 | 0.00 | 0.00 | 0.00 | 46 | 880.1 |
| 20260508070014 | 15 | 136 | 9.7 | 14.5 | 0.00 | 0.00 | 0.00 | 48 | 880.2 |
| 20260508064519 | 15 | 140 | 4.8 | 11.3 | 0.00 | 0.00 | 0.00 | 52 | 880.2 |
| 20260508063014 | 15 | 110 | 6.4 | 12.9 | 0.00 | 0.00 | 0.00 | 54 | 880.3 |
| 20260508061517 | 15 | 149 | 4.8 | 11.3 | 0.00 | 0.00 | 0.00 | 56 | 880.3 |
| 20260508060020 | 15 | 157 | 4.8 | 11.3 | 0.00 | 0.00 | 0.00 | 57 | 880.3 |
| 20260508054512 | 15 | 143 | 4.8 | 8.0 | 0.00 | 0.00 | 0.00 | 56 | 880.3 |
| 20260508053011 | 15 | 114 | 4.8 | 11.3 | 0.00 | 0.00 | 0.00 | 54 | 880.4 |
| 20260508051510 | 15 | 136 | 4.8 | 14.5 | 0.00 | 0.00 | 0.00 | 52 | 880.4 |
| 20260508050010 | 15 | 138 | 4.8 | 9.7 | 0.00 | 0.00 | 0.00 | 49 | 880.4 |
| 20260508044510 | 15 | 147 | 4.8 | 9.7 | 0.00 | 0.00 | 0.00 | 47 | 880.4 |
| 20260508043014 | 15 | 134 | 4.8 | 11.3 | 0.00 | 0.00 | 0.00 | 46 | 880.3 |
| 20260508041509 | 15 | 159 | 6.4 | 16.1 | 0.00 | 0.00 | 0.00 | 48 | 880.1 |